Flag for Israel

Past Weather in Safed, Israel — Yesterday and Last 2 Weeks

Now
86 °F

Clear.


Feels Like: 95 °F
Forecast: 82 / 68 °F
Wind: 8 mph from Northwest

Location: Beirut Airport
Current Time: Sep 29, 2020 at 3:01:17 pm
Latest Report: Sep 29, 2020 at 2:00 pm
Visibility: 5 mi
Pressure29.92 "Hg(27.43 "Hg at 772m altitude)
Humidity: 70%
Dew Point: 75 °F
Location of SafedLocation

Past Weather in Safed — Graph

°F

Safed Temperature Yesterday

Maximum temperature yesterday: 91 °F (at 2:00 pm)
Minimum temperature yesterday: 79 °F (at 5:00 am)
Average temperature yesterday: 85 °F

High & Low Weather Summary for the Past Weeks

 TemperatureHumidityPressure
High91 °F (Sep 28, 2:00 pm)84% (Sep 16, 5:00 am)30.04 "Hg (Sep 16, 5:00 am)
Low77 °F (Sep 19, 5:00 am)32% (Sep 29, 7:00 am)29.80 "Hg (Sep 20, 7:00 pm)
Average83 °F63%29.92 "Hg
* Reported Sep 14 1:00 pm — Sep 29 1:00 pm, Safed. Weather by CustomWeather, © 2020

Note: Actual official high and low records may vary slightly from our data, if they occured in-between our weather recording intervals... More about our weather records

Safed Weather History for the Previous 24 Hours

Scroll right to see more
 ConditionsComfort  
Time TempWeatherWind HumidityBarometerVisibility
1:00 pm
Tue, Sep 29
88 °FClear.10 mph62%29.95 "Hg5 mi
12:00 pm86 °FClear.10 mph66%29.95 "Hg5 mi
11:00 am86 °FClear.5 mph52%29.95 "Hg5 mi
10:00 am84 °FClear.5 mph58%29.95 "Hg5 mi
9:00 am84 °FPassing clouds.3 mph58%29.95 "HgN/A
8:00 am79 °FSunny.3 mph34%29.95 "Hg10 mi
7:00 am79 °FSunny.3 mph32%29.98 "Hg10 mi
6:00 am79 °FClear.7 mph34%29.95 "Hg10 mi
5:00 am79 °FClear.7 mph37%29.95 "Hg10 mi
4:00 am81 °FClear.7 mph37%29.98 "Hg10 mi
3:00 am79 °FClear.8 mph42%29.98 "Hg10 mi
2:00 am81 °FPassing clouds.3 mph42%29.98 "HgN/A
1:00 am81 °FClear.2 mph39%29.98 "Hg10 mi
12:00 am81 °FClear.7 mph58%30.01 "Hg10 mi
11:00 pm
Mon, Sep 28
82 °FClear.6 mph70%30.01 "Hg10 mi
10:00 pm82 °FClear.6 mph70%30.01 "Hg10 mi
9:00 pm84 °FClear.9 mph66%29.98 "Hg10 mi
8:00 pm84 °FClear.9 mph62%29.98 "Hg10 mi
7:00 pm86 °FClear.12 mph49%29.98 "Hg10 mi
6:00 pm88 °FSunny.12 mph52%29.98 "Hg5 mi
5:00 pm88 °FSunny.13 mph49%29.98 "Hg5 mi
4:00 pm90 °FSunny.13 mph46%30.01 "Hg5 mi
3:00 pm91 °FSunny.10 mph36%30.01 "Hg5 mi
Weather by CustomWeather, © 2020

See weather overview